sat.trackr.live / text

‹ back to catalog

STARLINK-30768

NORAD 58120 · 2023-162C

PAYLOAD ACTIVE UNKNOWN

§ Identity

Operator
Country
US
Launch date
2023-10-22
Launch site
AFETR
Launch vehicle
Mass (kg)
RCS (m²)

Purposes: comms

External: N2YO · Heavens-Above · Gunter

§ Orbital elements

Epoch: 2026-09-20T22:45:46.779840Z

Period
94.27 min
Inclination
43.0017°
Eccentricity
0.0001065
Mean motion
15.27576750 rev/d
Perigee alt
482.3 km
Apogee alt
483.8 km
Semi-major
6,861.2 km
B*
-3.6505e-6
RAAN
109.4188°
Arg perigee
273.1951°
Mean anomaly
86.8779°
Rev number
16,217

§ Raw data

STARLINK-307681 58120U 23162C   26263.94845810 -.00000362  00000+0 -36505-5 0  99942 58120  43.0017 109.4188 0001065 273.1951  86.8779 15.27576750162171

JSON: /api/v1/satellites/58120 · /tle

For live sub-satellite position, see the globe view (requires WebGL).

§ Visibility from observer

Set your observer location to see the next 7 days of passes ≥ 10°. The values pass through the URL so the page stays shareable.

No JS? Fill the form by hand. The geolocation button needs JavaScript.